Rome, NY

1:21 PM EDT on May 24, 2017 (GMT -0400)
Griffiss

Weather History for KRME - March, 2013

Change the Weather History Date:

Thursday, March 7, 2013

  Actual Average Record
Temperature  
Mean Temperature 32 °F -  
Max Temperature 37 °F 37 °F 64 °F (2012)
Min Temperature 28 °F 18 °F -1 °F (1989)
Degree Days  
Heating Degree Days 32    
Moisture  
Dew Point 24 °F    
Average Humidity 72    
Maximum Humidity 92    
Minimum Humidity 54    
Precipitation  
Precipitation 0.01 in - - ()
Sea Level Pressure  
Sea Level Pressure 30.18 in    
Wind  
Wind Speed 4 mph (NW)    
Max Wind Speed 12 mph    
Max Gust Speed -    
Visibility 7 miles    
Events Snow    
Averages and records for this station are not official NWS values.
T = Trace of Precipitation, MM = Missing Value Source: NWS Daily Summary

Daily Weather History Graph

Daily Weather History Graph

Search for Another Location

Airport or City:

Trip Planner

Search our weather history database for the weather conditions in past years. The results will help you decide how hot, cold, wet, or windy it might be!

Date:

Astronomy

Mar. 07, 2013 Rise Set
Actual Time 6:27 AM EST 5:58 PM EST
Civil Twilight 5:58 AM EST 6:26 PM EST
Nautical Twilight 5:25 AM EST 6:59 PM EST
Astronomical Twilight 4:52 AM EST 7:33 PM EST
Moon 3:31 AM EST (3/7) 1:38 PM EST (3/7)
Length of Visible Light 12h 28m
Length of Day
11h 31m
Waning Crescent, 20% of the Moon is Illuminated
Mar 7
Waning Crescent
Mar 11
New
Mar 19
First Quarter
Mar 27
Full
Apr 3
Last Quarter

Hourly Weather History & Observations

Time (EST) Temp. Windchill Dew Point Humidity Pressure Visibility Wind Dir Wind Speed Gust Speed Precip Events Conditions
12:53 AM 36.0 °F - 21.9 °F 57% 30.15 in 10.0 mi Calm Calm - N/A   Overcast
1:53 AM 34.0 °F - 23.0 °F 64% 30.16 in 10.0 mi Calm Calm - N/A   Overcast
2:53 AM 35.1 °F 30.1 °F 21.9 °F 59% 30.16 in 10.0 mi East 5.8 mph - N/A   Overcast
3:53 AM 35.1 °F 32.2 °F 21.0 °F 57% 30.17 in 10.0 mi ENE 3.5 mph - N/A   Overcast
4:53 AM 34.0 °F 29.8 °F 19.9 °F 56% 30.16 in 10.0 mi ENE 4.6 mph - N/A   Overcast
5:53 AM 33.1 °F - 19.9 °F 59% 30.16 in 10.0 mi Calm Calm - N/A   Overcast
6:53 AM 33.1 °F - 19.0 °F 56% 30.15 in 10.0 mi Calm Calm - N/A   Overcast
7:53 AM 33.1 °F 30.0 °F 23.0 °F 66% 30.16 in 10.0 mi SE 3.5 mph - N/A   Overcast
8:53 AM 35.1 °F - 19.9 °F 54% 30.18 in 10.0 mi Calm Calm - N/A   Overcast
9:53 AM 35.1 °F 32.2 °F 23.0 °F 61% 30.18 in 10.0 mi WNW 3.5 mph - N/A   Overcast
10:53 AM 36.0 °F 31.1 °F 24.1 °F 62% 30.18 in 10.0 mi NW 5.8 mph - N/A   Overcast
11:53 AM 37.0 °F 31.0 °F 24.1 °F 59% 30.17 in 10.0 mi North 8.1 mph - N/A   Overcast
12:53 PM 36.0 °F 29.6 °F 24.1 °F 62% 30.17 in 10.0 mi NNW 8.1 mph - N/A   Overcast
1:53 PM 37.0 °F 31.0 °F 24.1 °F 59% 30.16 in 10.0 mi WNW 8.1 mph - N/A   Overcast
2:53 PM 36.0 °F 28.0 °F 25.0 °F 64% 30.17 in 10.0 mi NNW 11.5 mph - N/A   Overcast
3:53 PM 36.0 °F 28.5 °F 23.0 °F 59% 30.17 in 10.0 mi NNW 10.4 mph - N/A   Overcast
4:53 PM 34.0 °F 27.2 °F 23.0 °F 64% 30.19 in 10.0 mi North 8.1 mph - N/A   Overcast
5:53 PM 32.0 °F 26.4 °F 26.1 °F 79% 30.21 in 3.0 mi NNW 5.8 mph - 0.00 in Snow Light Snow
6:53 PM 30.9 °F 26.2 °F 27.0 °F 85% 30.22 in 3.0 mi NNW 4.6 mph - 0.00 in Snow Light Snow
7:53 PM 30.0 °F 23.2 °F 27.0 °F 88% 30.22 in 3.0 mi NW 6.9 mph - 0.00 in Snow Light Snow
8:53 PM 30.0 °F 22.4 °F 27.0 °F 88% 30.22 in 3.0 mi NW 8.1 mph - 0.00 in Snow Light Snow
9:11 PM 28.9 °F 21.9 °F 27.0 °F 92% 30.20 in 2.5 mi WNW 6.9 mph - 0.00 in Snow Light Snow
9:21 PM 28.9 °F 21.9 °F 26.1 °F 89% 30.20 in 3.0 mi WNW 6.9 mph - 0.00 in Snow Light Snow
9:53 PM 28.9 °F 21.9 °F 26.1 °F 89% 30.21 in 2.5 mi WNW 6.9 mph - 0.00 in Snow Light Snow
10:05 PM 28.9 °F 21.1 °F 26.1 °F 89% 30.19 in 3.0 mi WNW 8.1 mph - 0.00 in Snow Light Snow
10:23 PM 28.9 °F 21.1 °F 26.1 °F 89% 30.19 in 2.5 mi WNW 8.1 mph - 0.00 in Snow Light Snow
10:53 PM 28.0 °F 20.0 °F 26.1 °F 92% 30.20 in 3.0 mi WNW 8.1 mph - 0.00 in Snow Light Snow
11:02 PM 28.0 °F 20.0 °F 26.1 °F 92% 30.19 in 2.5 mi WNW 8.1 mph - 0.00 in Snow Light Snow
11:11 PM 28.0 °F 20.8 °F 26.1 °F 92% 30.19 in 1.8 mi WNW 6.9 mph - 0.00 in Snow Light Snow
11:53 PM 28.0 °F 19.3 °F 25.0 °F 88% 30.20 in 1.8 mi WNW 9.2 mph - 0.01 in Snow Light Snow